Time,TemperatureF,DewpointF,PressureIn,WindDirection,WindDirectionDegrees,WindSpeedMPH,WindSpeedGustMPH,Humidity,HourlyPrecipIn,Conditions,Clouds,dailyrainin,SoftwareType,DateUTC
2013-09-06 00:01:00,68.4,65.0,30.10,East,92,0.0,0.0,89,0.00,CLR,,0.00,WeatherDisplay:10.37,2013-09-06 04:01:00,
2013-09-06 00:03:00,68.4,65.0,30.10,East,92,2.3,2.3,89,0.00,CLR,,0.00,WeatherDisplay:10.37,2013-09-06 04:03:00,
2013-09-06 00:08:00,68.4,65.0,30.10,East,92,0.0,0.0,89,0.00,CLR,,0.00,WeatherDisplay:10.37,2013-09-06 04:08:00,
2013-09-06 00:13:00,68.4,65.0,30.10,East,91,0.0,0.0,89,0.00,CLR,,0.00,WeatherDisplay:10.37,2013-09-06 04:13:00,
2013-09-06 00:18:00,68.5,65.1,30.10,East,92,0.0,0.0,89,0.00,CLR,,0.00,WeatherDisplay:10.37,2013-09-06 04:18:00,
2013-09-06 00:23:00,68.5,65.1,30.10,East,92,0.0,0.0,89,0.00,CLR,,0.00,WeatherDisplay:10.37,2013-09-06 04:23:00,
2013-09-06 00:28:00,68.4,65.0,30.10,East,92,0.0,0.0,89,0.00,CLR,,0.00,WeatherDisplay:10.37,2013-09-06 04:28:00,
2013-09-06 00:33:00,68.4,65.0,30.10,East,91,0.0,0.0,89,0.00,CLR,,0.00,WeatherDisplay:10.37,2013-09-06 04:33:00,
2013-09-06 00:38:00,68.3,64.9,30.10,East,92,0.0,0.0,89,0.00,CLR,,0.00,WeatherDisplay:10.37,2013-09-06 04:38:00,
2013-09-06 00:43:00,68.3,64.9,30.10,East,91,0.0,0.0,89,0.00,CLR,,0.00,WeatherDisplay:10.37,2013-09-06 04:43:00,
2013-09-06 00:48:00,68.2,64.8,30.10,East,92,0.0,0.0,89,0.00,CLR,,0.00,WeatherDisplay:10.37,2013-09-06 04:48:00,
2013-09-06 00:53:00,68.0,64.6,30.10,East,92,0.0,0.0,89,0.00,CLR,,0.00,WeatherDisplay:10.37,2013-09-06 04:53:00,
2013-09-06 00:58:00,67.7,64.0,30.11,East,92,0.0,0.0,88,0.00,CLR,,0.00,WeatherDisplay:10.37,2013-09-06 04:58:00,
2013-09-06 01:03:00,67.4,63.7,30.11,East,92,0.0,0.0,88,0.00,CLR,,0.00,WeatherDisplay:10.37,2013-09-06 05:03:00,
2013-09-06 01:08:00,67.2,63.5,30.11,East,92,0.0,0.0,88,0.00,CLR,,0.00,WeatherDisplay:10.37,2013-09-06 05:08:00,
2013-09-06 01:13:00,67.0,63.6,30.11,East,92,0.0,0.0,89,0.00,CLR,,0.00,WeatherDisplay:10.37,2013-09-06 05:13:00,
2013-09-06 01:18:00,66.8,63.5,30.11,East,92,0.0,0.0,89,0.00,CLR,,0.00,WeatherDisplay:10.37,2013-09-06 05:18:00,
2013-09-06 01:23:00,66.6,63.6,30.11,East,92,0.0,0.0,90,0.00,CLR,,0.00,WeatherDisplay:10.37,2013-09-06 05:23:00,
2013-09-06 01:28:00,66.6,63.9,30.11,East,92,0.0,0.0,91,0.00,CLR,,0.00,WeatherDisplay:10.37,2013-09-06 05:28:00,
2013-09-06 01:33:00,66.5,64.1,30.10,East,92,0.0,0.0,92,0.00,CLR,,0.00,WeatherDisplay:10.37,2013-09-06 05:33:00,
2013-09-06 01:38:00,66.4,64.0,30.10,East,92,0.0,0.0,92,0.00,CLR,,0.00,WeatherDisplay:10.37,2013-09-06 05:38:00,
2013-09-06 01:43:00,66.3,63.9,30.10,East,92,0.0,0.0,92,0.00,CLR,,0.00,WeatherDisplay:10.37,2013-09-06 05:43:00,
2013-09-06 01:48:00,66.2,63.8,30.10,East,92,0.0,0.0,92,0.00,CLR,,0.00,WeatherDisplay:10.37,2013-09-06 05:48:00,
2013-09-06 01:53:00,66.1,63.7,30.11,East,92,0.0,0.0,92,0.00,CLR,,0.00,WeatherDisplay:10.37,2013-09-06 05:53:00,
2013-09-06 01:58:00,66.0,63.6,30.11,East,92,0.0,0.0,92,0.00,CLR,,0.00,WeatherDisplay:10.37,2013-09-06 05:58:00,
2013-09-06 02:03:00,65.9,63.5,30.11,East,92,0.0,0.0,92,0.00,CLR,,0.00,WeatherDisplay:10.37,2013-09-06 06:03:00,
2013-09-06 02:08:00,65.8,63.4,30.10,East,92,0.0,0.0,92,0.00,CLR,,0.00,WeatherDisplay:10.37,2013-09-06 06:08:00,
2013-09-06 02:13:00,65.7,63.3,30.10,East,92,0.0,0.0,92,0.00,CLR,,0.00,WeatherDisplay:10.37,2013-09-06 06:13:00,
2013-09-06 02:18:00,65.7,63.3,30.10,East,92,0.0,0.0,92,0.00,CLR,,0.00,WeatherDisplay:10.37,2013-09-06 06:18:00,
2013-09-06 02:23:00,65.6,63.2,30.10,East,92,0.0,0.0,92,0.00,CLR,,0.00,WeatherDisplay:10.37,2013-09-06 06:23:00,
2013-09-06 02:28:00,65.5,63.1,30.10,East,92,0.0,0.0,92,0.00,CLR,,0.00,WeatherDisplay:10.37,2013-09-06 06:28:00,
2013-09-06 02:33:00,65.4,63.0,30.11,East,92,0.0,0.0,92,0.00,CLR,,0.00,WeatherDisplay:10.37,2013-09-06 06:33:00,
2013-09-06 02:38:00,65.4,63.0,30.10,East,92,0.0,0.0,92,0.00,CLR,,0.00,WeatherDisplay:10.37,2013-09-06 06:38:00,
2013-09-06 02:43:00,65.3,62.9,30.10,East,92,0.0,0.0,92,0.00,CLR,,0.00,WeatherDisplay:10.37,2013-09-06 06:43:00,
2013-09-06 02:48:00,65.2,62.8,30.10,East,92,0.0,0.0,92,0.00,CLR,,0.00,WeatherDisplay:10.37,2013-09-06 06:48:00,
2013-09-06 02:53:00,65.0,62.6,30.10,East,92,0.0,0.0,92,0.00,CLR,,0.00,WeatherDisplay:10.37,2013-09-06 06:53:00,
2013-09-06 02:58:00,64.9,62.5,30.10,East,92,0.0,0.0,92,0.00,CLR,,0.00,WeatherDisplay:10.37,2013-09-06 06:58:00,
2013-09-06 03:03:00,64.8,62.4,30.10,East,92,0.0,0.0,92,0.00,CLR,,0.00,WeatherDisplay:10.37,2013-09-06 07:03:00,
2013-09-06 03:08:00,64.7,62.3,30.10,East,92,0.0,0.0,92,0.00,CLR,,0.00,WeatherDisplay:10.37,2013-09-06 07:08:00,
2013-09-06 03:13:00,64.7,62.3,30.10,East,92,0.0,0.0,92,0.00,CLR,,0.00,WeatherDisplay:10.37,2013-09-06 07:13:00,
2013-09-06 03:18:00,64.6,62.5,30.10,East,92,0.0,0.0,93,0.00,CLR,,0.00,WeatherDisplay:10.37,2013-09-06 07:18:00,
2013-09-06 03:23:00,64.5,62.4,30.10,East,92,0.0,0.0,93,0.00,CLR,,0.00,WeatherDisplay:10.37,2013-09-06 07:23:00,
2013-09-06 03:28:00,64.5,62.4,30.10,East,92,0.0,0.0,93,0.00,CLR,,0.00,WeatherDisplay:10.37,2013-09-06 07:28:00,
2013-09-06 03:33:00,64.5,62.4,30.10,East,92,0.0,0.0,93,0.00,CLR,,0.00,WeatherDisplay:10.37,2013-09-06 07:33:00,
2013-09-06 03:38:00,64.4,62.3,30.10,East,92,0.0,0.0,93,0.00,CLR,,0.00,WeatherDisplay:10.37,2013-09-06 07:38:00,
2013-09-06 03:43:00,64.4,62.0,30.10,NE,51,0.0,0.0,92,0.00,CLR,,0.00,WeatherDisplay:10.37,2013-09-06 07:43:00,
2013-09-06 03:48:00,64.4,62.0,30.10,NE,51,0.0,0.0,92,0.00,CLR,,0.00,WeatherDisplay:10.37,2013-09-06 07:48:00,
2013-09-06 03:53:00,64.4,62.0,30.10,NE,51,0.0,0.0,92,0.00,CLR,,0.00,WeatherDisplay:10.37,2013-09-06 07:53:00,
2013-09-06 03:58:00,64.4,62.0,30.10,NE,51,0.0,0.0,92,0.00,CLR,,0.00,WeatherDisplay:10.37,2013-09-06 07:58:00,
2013-09-06 04:03:00,64.4,62.0,30.10,NE,51,0.0,0.0,92,0.00,CLR,,0.00,WeatherDisplay:10.37,2013-09-06 08:03:00,
2013-09-06 04:08:00,64.4,61.7,30.11,NE,51,0.0,0.0,91,0.00,CLR,,0.00,WeatherDisplay:10.37,2013-09-06 08:08:00,
2013-09-06 04:13:00,64.4,61.7,30.10,NE,51,0.0,0.0,91,0.00,CLR,,0.00,WeatherDisplay:10.37,2013-09-06 08:13:00,
2013-09-06 04:18:00,64.4,61.7,30.10,NE,51,0.0,0.0,91,0.00,CLR,,0.00,WeatherDisplay:10.37,2013-09-06 08:18:00,
2013-09-06 04:23:00,64.4,61.7,30.11,NE,51,0.0,0.0,91,0.00,CLR,,0.00,WeatherDisplay:10.37,2013-09-06 08:23:00,
2013-09-06 04:28:00,64.4,61.7,30.11,NE,51,0.0,0.0,91,0.00,CLR,,0.00,WeatherDisplay:10.37,2013-09-06 08:28:00,
2013-09-06 04:33:00,64.4,61.4,30.11,NE,51,0.0,0.0,90,0.00,CLR,,0.00,WeatherDisplay:10.37,2013-09-06 08:33:00,
2013-09-06 04:38:00,64.4,61.4,30.11,NE,51,0.0,0.0,90,0.00,CLR,,0.00,WeatherDisplay:10.37,2013-09-06 08:38:00,
2013-09-06 04:43:00,64.4,61.4,30.11,NE,51,0.0,0.0,90,0.00,CLR,,0.00,WeatherDisplay:10.37,2013-09-06 08:43:00,
2013-09-06 04:48:00,64.4,61.4,30.11,NE,51,0.0,0.0,90,0.00,CLR,,0.00,WeatherDisplay:10.37,2013-09-06 08:48:00,
2013-09-06 04:53:00,64.4,61.4,30.11,NE,51,0.0,0.0,90,0.00,CLR,,0.00,WeatherDisplay:10.37,2013-09-06 08:53:00,
2013-09-06 04:58:00,64.3,61.3,30.11,NE,51,0.0,0.0,90,0.00,CLR,,0.00,WeatherDisplay:10.37,2013-09-06 08:58:00,
2013-09-06 05:03:00,64.3,61.3,30.11,NE,51,0.0,0.0,90,0.00,CLR,,0.00,WeatherDisplay:10.37,2013-09-06 09:03:00,
2013-09-06 05:08:00,64.3,61.3,30.12,NE,51,0.0,0.0,90,0.00,CLR,,0.00,WeatherDisplay:10.37,2013-09-06 09:08:00,
2013-09-06 05:13:00,64.3,61.3,30.12,NE,51,0.0,0.0,90,0.00,CLR,,0.00,WeatherDisplay:10.37,2013-09-06 09:13:00,
2013-09-06 05:18:00,64.3,61.3,30.11,NE,51,0.0,0.0,90,0.00,CLR,,0.00,WeatherDisplay:10.37,2013-09-06 09:18:00,
2013-09-06 05:23:00,64.3,61.6,30.12,NE,51,0.0,0.0,91,0.00,CLR,,0.00,WeatherDisplay:10.37,2013-09-06 09:23:00,
2013-09-06 05:28:00,64.2,61.5,30.12,NE,51,0.0,0.0,91,0.00,CLR,,0.00,WeatherDisplay:10.37,2013-09-06 09:28:00,
2013-09-06 05:33:00,64.1,61.4,30.12,NE,51,0.0,0.0,91,0.00,CLR,,0.00,WeatherDisplay:10.37,2013-09-06 09:33:00,
2013-09-06 05:38:00,64.0,61.6,30.12,NE,51,0.0,0.0,92,0.00,CLR,,0.00,WeatherDisplay:10.37,2013-09-06 09:38:00,
2013-09-06 05:43:00,64.0,61.3,30.12,NE,51,0.0,0.0,91,0.00,CLR,,0.00,WeatherDisplay:10.37,2013-09-06 09:43:00,
2013-09-06 05:48:00,63.9,61.2,30.12,NE,51,0.0,0.0,91,0.00,CLR,,0.00,WeatherDisplay:10.37,2013-09-06 09:48:00,
2013-09-06 05:53:00,63.8,61.1,30.12,NE,51,0.0,0.0,91,0.00,CLR,,0.00,WeatherDisplay:10.37,2013-09-06 09:53:00,
2013-09-06 05:58:00,63.7,61.0,30.12,NE,51,0.0,0.0,91,0.00,CLR,,0.00,WeatherDisplay:10.37,2013-09-06 09:58:00,
2013-09-06 06:03:00,63.6,60.9,30.12,NE,51,0.0,0.0,91,0.00,CLR,,0.00,WeatherDisplay:10.37,2013-09-06 10:03:00,
2013-09-06 06:08:00,63.5,60.8,30.12,NE,51,0.0,0.0,91,0.00,CLR,,0.00,WeatherDisplay:10.37,2013-09-06 10:08:00,
2013-09-06 06:13:00,63.5,60.8,30.12,NE,51,0.0,0.0,91,0.00,CLR,,0.00,WeatherDisplay:10.37,2013-09-06 10:13:00,
2013-09-06 06:18:00,63.4,60.7,30.12,NE,51,0.0,0.0,91,0.00,CLR,,0.00,WeatherDisplay:10.37,2013-09-06 10:18:00,
2013-09-06 06:23:00,63.3,60.9,30.12,NE,51,0.0,0.0,92,0.00,CLR,,0.00,WeatherDisplay:10.37,2013-09-06 10:23:00,
2013-09-06 06:28:00,63.3,60.9,30.13,NE,51,0.0,0.0,92,0.00,CLR,,0.00,WeatherDisplay:10.37,2013-09-06 10:28:00,
2013-09-06 06:33:00,63.2,60.8,30.13,NE,51,0.0,0.0,92,0.00,CLR,,0.00,WeatherDisplay:10.37,2013-09-06 10:33:00,
2013-09-06 06:38:00,63.2,60.8,30.13,NE,51,2.0,2.0,92,0.00,CLR,,0.00,WeatherDisplay:10.37,2013-09-06 10:38:00,
2013-09-06 06:43:00,63.2,60.5,30.14,ENE,63,2.3,2.3,91,0.00,CLR,,0.00,WeatherDisplay:10.37,2013-09-06 10:43:00,
2013-09-06 06:48:00,63.3,60.6,30.14,ENE,63,3.5,0.0,91,0.00,CLR,,0.00,WeatherDisplay:10.37,2013-09-06 10:48:00,
2013-09-06 06:53:00,63.4,60.7,30.14,ENE,63,0.0,0.0,91,0.00,CLR,,0.00,WeatherDisplay:10.37,2013-09-06 10:53:00,
2013-09-06 06:58:00,63.4,60.7,30.14,ENE,63,0.0,0.0,91,0.00,CLR,,0.00,WeatherDisplay:10.37,2013-09-06 10:58:00,
2013-09-06 07:03:00,63.4,60.7,30.15,ENE,63,0.0,0.0,91,0.00,CLR,,0.00,WeatherDisplay:10.37,2013-09-06 11:03:00,
2013-09-06 07:08:00,63.5,60.8,30.15,ENE,63,0.0,0.0,91,0.00,CLR,,0.00,WeatherDisplay:10.37,2013-09-06 11:08:00,
2013-09-06 07:13:00,63.4,60.7,30.15,ENE,63,0.0,0.0,91,0.00,CLR,,0.00,WeatherDisplay:10.37,2013-09-06 11:13:00,
2013-09-06 07:18:00,63.3,60.6,30.15,ENE,63,0.0,0.0,91,0.00,CLR,,0.00,WeatherDisplay:10.37,2013-09-06 11:18:00,
2013-09-06 07:23:00,63.2,60.5,30.15,ENE,63,0.0,0.0,91,0.00,CLR,,0.00,WeatherDisplay:10.37,2013-09-06 11:23:00,
2013-09-06 07:28:00,63.1,60.4,30.15,ENE,63,0.0,0.0,91,0.00,CLR,,0.00,WeatherDisplay:10.37,2013-09-06 11:28:00,
2013-09-06 07:33:00,63.0,60.3,30.15,ENE,63,0.0,0.0,91,0.00,CLR,,0.00,WeatherDisplay:10.37,2013-09-06 11:33:00,
2013-09-06 07:38:00,62.9,60.5,30.15,NNE,25,1.0,0.0,92,0.00,CLR,,0.00,WeatherDisplay:10.37,2013-09-06 11:38:00,
2013-09-06 07:43:00,62.9,60.5,30.16,NE,42,0.0,0.0,92,0.00,CLR,,0.00,WeatherDisplay:10.37,2013-09-06 11:43:00,
2013-09-06 07:48:00,63.0,60.6,30.16,NE,42,0.0,0.0,92,0.00,CLR,,0.00,WeatherDisplay:10.37,2013-09-06 11:48:00,
2013-09-06 07:53:00,63.1,60.7,30.16,NE,42,0.0,0.0,92,0.00,CLR,,0.00,WeatherDisplay:10.37,2013-09-06 11:53:00,
2013-09-06 07:58:00,63.4,61.0,30.16,NNE,33,0.0,0.1,92,0.00,CLR,,0.00,WeatherDisplay:10.37,2013-09-06 11:58:00,
2013-09-06 08:03:00,63.9,61.2,30.16,NE,37,3.5,3.5,91,0.00,CLR,,0.00,WeatherDisplay:10.37,2013-09-06 12:03:00,
2013-09-06 08:08:00,64.4,61.4,30.17,NNE,30,0.0,0.1,90,0.00,CLR,,0.00,WeatherDisplay:10.37,2013-09-06 12:08:00,
2013-09-06 08:13:00,65.0,61.7,30.17,ESE,105,0.0,0.0,89,0.00,CLR,,0.00,WeatherDisplay:10.37,2013-09-06 12:13:00,
2013-09-06 08:18:00,65.5,61.9,30.17,ENE,59,3.5,3.5,88,0.00,CLR,,0.00,WeatherDisplay:10.37,2013-09-06 12:18:00,
2013-09-06 08:23:00,65.9,61.9,30.17,NE,47,4.0,4.0,87,0.00,CLR,,0.00,WeatherDisplay:10.37,2013-09-06 12:23:00,
2013-09-06 08:28:00,66.3,62.0,30.17,ENE,68,4.6,4.6,86,0.00,CLR,,0.00,WeatherDisplay:10.37,2013-09-06 12:28:00,
2013-09-06 08:33:00,66.6,61.6,30.17,ENE,60,6.9,6.9,84,0.00,CLR,,0.00,WeatherDisplay:10.37,2013-09-06 12:33:00,
2013-09-06 08:38:00,66.8,61.8,30.18,ENE,60,4.0,4.0,84,0.00,CLR,,0.00,WeatherDisplay:10.37,2013-09-06 12:38:00,
2013-09-06 08:43:00,67.0,61.7,30.17,NE,40,5.0,5.0,83,0.00,CLR,,0.00,WeatherDisplay:10.37,2013-09-06 12:43:00,
2013-09-06 08:48:00,67.2,61.9,30.17,NE,40,4.6,4.6,83,0.00,CLR,,0.00,WeatherDisplay:10.37,2013-09-06 12:48:00,
2013-09-06 08:53:00,67.5,61.5,30.17,ENE,60,4.6,4.6,81,0.00,CLR,,0.00,WeatherDisplay:10.37,2013-09-06 12:53:00,
2013-09-06 08:58:00,67.6,61.6,30.17,NE,43,4.6,4.6,81,0.00,CLR,,0.00,WeatherDisplay:10.37,2013-09-06 12:58:00,
2013-09-06 09:03:00,67.8,61.4,30.17,NE,38,5.8,5.8,80,0.00,CLR,,0.00,WeatherDisplay:10.37,2013-09-06 13:03:00,
2013-09-06 09:08:00,68.0,61.6,30.17,NE,43,3.5,3.5,80,0.00,CLR,,0.00,WeatherDisplay:10.37,2013-09-06 13:08:00,
2013-09-06 09:13:00,68.3,61.2,30.17,East,84,2.3,0.0,78,0.00,CLR,,0.00,WeatherDisplay:10.37,2013-09-06 13:13:00,
2013-09-06 09:18:00,68.8,61.3,30.18,ENE,61,4.6,4.6,77,0.00,CLR,,0.00,WeatherDisplay:10.37,2013-09-06 13:18:00,
2013-09-06 09:23:00,69.1,61.2,30.18,ENE,60,10.4,10.4,76,0.00,CLR,,0.00,WeatherDisplay:10.37,2013-09-06 13:23:00,
2013-09-06 09:28:00,69.2,60.9,30.18,NE,53,3.5,3.5,75,0.00,CLR,,0.00,WeatherDisplay:10.37,2013-09-06 13:28:00,
2013-09-06 09:33:00,69.5,61.6,30.18,East,93,1.2,0.0,76,0.00,CLR,,0.00,WeatherDisplay:10.37,2013-09-06 13:33:00,
2013-09-06 09:38:00,69.9,61.2,30.18,NE,52,1.2,1.2,74,0.00,CLR,,0.00,WeatherDisplay:10.37,2013-09-06 13:38:00,
2013-09-06 09:43:00,70.2,61.1,30.18,ENE,76,4.6,4.6,73,0.00,CLR,,0.00,WeatherDisplay:10.37,2013-09-06 13:43:00,
2013-09-06 09:48:00,70.6,62.3,30.18,NE,56,3.5,3.5,75,0.00,CLR,,0.00,WeatherDisplay:10.37,2013-09-06 13:48:00,
2013-09-06 09:53:00,70.8,59.7,30.18,NE,40,8.1,8.1,68,0.00,CLR,,0.00,WeatherDisplay:10.37,2013-09-06 13:53:00,
2013-09-06 09:58:00,70.6,59.9,30.18,ENE,74,4.6,4.6,69,0.00,CLR,,0.00,WeatherDisplay:10.37,2013-09-06 13:58:00,
2013-09-06 10:03:00,70.7,60.4,30.18,NE,34,6.9,6.9,70,0.00,CLR,,0.00,WeatherDisplay:10.37,2013-09-06 14:03:00,
2013-09-06 10:08:00,71.0,60.3,30.18,ENE,65,10.4,10.4,69,0.00,CLR,,0.00,WeatherDisplay:10.37,2013-09-06 14:08:00,
2013-09-06 10:13:00,71.0,59.9,30.18,NE,36,6.9,6.9,68,0.00,CLR,,0.00,WeatherDisplay:10.37,2013-09-06 14:13:00,
2013-09-06 10:18:00,71.0,60.3,30.19,ENE,60,6.9,6.9,69,0.00,CLR,,0.00,WeatherDisplay:10.37,2013-09-06 14:18:00,
2013-09-06 10:23:00,71.2,60.1,30.19,ESE,109,6.9,6.9,68,0.00,CLR,,0.00,WeatherDisplay:10.37,2013-09-06 14:23:00,
2013-09-06 10:28:00,71.3,60.6,30.19,NE,46,5.0,5.0,69,0.00,CLR,,0.00,WeatherDisplay:10.37,2013-09-06 14:28:00,
2013-09-06 10:33:00,71.5,60.4,30.19,NNE,26,5.8,5.8,68,0.00,CLR,,0.00,WeatherDisplay:10.37,2013-09-06 14:33:00,
2013-09-06 10:38:00,71.9,60.8,30.19,NE,46,3.0,3.0,68,0.00,CLR,,0.00,WeatherDisplay:10.37,2013-09-06 14:38:00,
2013-09-06 10:43:00,72.1,61.0,30.19,ENE,74,0.0,0.0,68,0.00,CLR,,0.00,WeatherDisplay:10.37,2013-09-06 14:43:00,
2013-09-06 10:48:00,72.5,61.7,30.19,NNE,32,6.0,6.0,69,0.00,CLR,,0.00,WeatherDisplay:10.37,2013-09-06 14:48:00,
2013-09-06 10:53:00,72.8,62.4,30.19,NNE,23,3.5,3.5,70,0.00,CLR,,0.00,WeatherDisplay:10.37,2013-09-06 14:53:00,
2013-09-06 10:58:00,72.9,61.7,30.19,ENE,58,6.9,6.9,68,0.00,CLR,,0.00,WeatherDisplay:10.37,2013-09-06 14:58:00,
2013-09-06 11:03:00,73.1,62.7,30.20,ENE,73,5.0,5.0,70,0.00,CLR,,0.00,WeatherDisplay:10.37,2013-09-06 15:03:00,
2013-09-06 11:08:00,73.3,62.1,30.20,ENE,65,5.8,5.8,68,0.00,CLR,,0.00,WeatherDisplay:10.37,2013-09-06 15:08:00,
2013-09-06 11:13:00,73.8,63.0,30.19,ENE,71,2.3,2.3,69,0.00,CLR,,0.00,WeatherDisplay:10.37,2013-09-06 15:13:00,
2013-09-06 11:18:00,74.0,62.3,30.19,NE,38,4.6,4.6,67,0.00,CLR,,0.00,WeatherDisplay:10.37,2013-09-06 15:18:00,
2013-09-06 11:23:00,74.0,61.9,30.19,NNE,14,4.6,4.6,66,0.00,CLR,,0.00,WeatherDisplay:10.37,2013-09-06 15:23:00,
2013-09-06 11:28:00,74.0,61.9,30.19,NNE,33,4.6,4.6,66,0.00,CLR,,0.00,WeatherDisplay:10.37,2013-09-06 15:28:00,
2013-09-06 11:33:00,74.0,61.9,30.19,NE,38,4.6,4.6,66,0.00,CLR,,0.00,WeatherDisplay:10.37,2013-09-06 15:33:00,
2013-09-06 11:38:00,74.0,62.8,30.19,NE,43,5.0,5.0,68,0.00,CLR,,0.00,WeatherDisplay:10.37,2013-09-06 15:38:00,
2013-09-06 11:43:00,74.2,62.1,30.19,North,5,6.0,6.0,66,0.00,CLR,,0.00,WeatherDisplay:10.37,2013-09-06 15:43:00,
2013-09-06 11:48:00,74.5,62.4,30.19,North,350,5.8,5.8,66,0.00,CLR,,0.00,WeatherDisplay:10.37,2013-09-06 15:48:00,
2013-09-06 11:53:00,74.7,62.1,30.18,NE,55,8.1,8.1,65,0.00,CLR,,0.00,WeatherDisplay:10.37,2013-09-06 15:53:00,
2013-09-06 11:58:00,74.8,63.9,30.18,NE,54,5.0,5.0,69,0.00,CLR,,0.00,WeatherDisplay:10.37,2013-09-06 15:58:00,
2013-09-06 12:03:00,75.0,63.3,30.18,NE,55,4.0,4.0,67,0.00,CLR,,0.00,WeatherDisplay:10.37,2013-09-06 16:03:00,
2013-09-06 12:08:00,75.3,63.2,30.18,NNE,24,5.8,5.8,66,0.00,CLR,,0.00,WeatherDisplay:10.37,2013-09-06 16:08:00,
2013-09-06 12:13:00,75.3,63.2,30.18,ENE,64,6.0,6.0,66,0.00,CLR,,0.00,WeatherDisplay:10.37,2013-09-06 16:13:00,
2013-09-06 12:18:00,75.0,61.5,30.18,ENE,74,3.5,3.5,63,0.00,CLR,,0.00,WeatherDisplay:10.37,2013-09-06 16:18:00,
2013-09-06 12:23:00,75.1,62.5,30.18,ESE,115,5.0,5.0,65,0.00,CLR,,0.00,WeatherDisplay:10.37,2013-09-06 16:23:00,
2013-09-06 12:28:00,75.3,62.7,30.17,NE,51,4.6,4.6,65,0.00,CLR,,0.00,WeatherDisplay:10.37,2013-09-06 16:28:00,
2013-09-06 12:33:00,75.5,63.3,30.17,NNE,31,6.0,6.0,66,0.00,CLR,,0.00,WeatherDisplay:10.37,2013-09-06 16:33:00,
2013-09-06 12:38:00,75.5,62.9,30.17,ENE,59,3.5,3.5,65,0.00,CLR,,0.00,WeatherDisplay:10.37,2013-09-06 16:38:00,
2013-09-06 12:43:00,75.7,64.0,30.17,ESE,109,3.5,3.5,67,0.00,CLR,,0.00,WeatherDisplay:10.37,2013-09-06 16:43:00,
2013-09-06 12:48:00,76.0,63.4,30.17,ENE,60,4.0,4.0,65,0.00,CLR,,0.00,WeatherDisplay:10.37,2013-09-06 16:48:00,
2013-09-06 12:53:00,76.2,65.7,30.17,ENE,59,8.0,8.0,70,0.00,CLR,,0.00,WeatherDisplay:10.37,2013-09-06 16:53:00,
2013-09-06 12:58:00,76.4,63.3,30.17,NNW,346,4.6,4.6,64,0.00,CLR,,0.00,WeatherDisplay:10.37,2013-09-06 16:58:00,
2013-09-06 13:03:00,76.5,63.4,30.17,South,183,3.5,3.5,64,0.00,CLR,,0.00,WeatherDisplay:10.37,2013-09-06 17:03:00,
2013-09-06 13:08:00,77.0,65.6,30.17,NNE,22,5.0,5.0,68,0.00,CLR,,0.00,WeatherDisplay:10.37,2013-09-06 17:08:00,
2013-09-06 13:13:00,77.2,63.6,30.17,NE,51,4.6,4.6,63,0.00,CLR,,0.00,WeatherDisplay:10.37,2013-09-06 17:13:00,
2013-09-06 13:18:00,77.5,65.2,30.16,ENE,74,3.5,3.5,66,0.00,CLR,,0.00,WeatherDisplay:10.37,2013-09-06 17:18:00,
2013-09-06 13:23:00,77.6,64.9,30.16,East,82,4.6,4.6,65,0.00,CLR,,0.00,WeatherDisplay:10.37,2013-09-06 17:23:00,
2013-09-06 13:28:00,77.7,65.0,30.16,North,360,4.6,4.6,65,0.00,CLR,,0.00,WeatherDisplay:10.37,2013-09-06 17:28:00,
2013-09-06 13:33:00,78.0,64.8,30.16,East,91,2.0,2.0,64,0.00,CLR,,0.00,WeatherDisplay:10.37,2013-09-06 17:33:00,
2013-09-06 13:38:00,78.2,65.5,30.16,North,360,0.0,0.0,65,0.00,CLR,,0.00,WeatherDisplay:10.37,2013-09-06 17:38:00,
2013-09-06 13:43:00,78.0,64.4,30.16,ENE,65,6.9,6.9,63,0.00,CLR,,0.00,WeatherDisplay:10.37,2013-09-06 17:43:00,
2013-09-06 13:48:00,77.2,64.1,30.16,SE,135,1.2,0.0,64,0.00,CLR,,0.00,WeatherDisplay:10.37,2013-09-06 17:48:00,
2013-09-06 13:53:00,77.3,64.6,30.15,North,360,0.0,0.0,65,0.00,CLR,,0.00,WeatherDisplay:10.37,2013-09-06 17:53:00,
2013-09-06 13:58:00,77.2,63.6,30.15,East,101,3.5,3.5,63,0.00,CLR,,0.00,WeatherDisplay:10.37,2013-09-06 17:58:00,
2013-09-06 14:03:00,77.3,65.9,30.15,SE,131,0.0,0.0,68,0.00,CLR,,0.00,WeatherDisplay:10.37,2013-09-06 18:03:00,
2013-09-06 14:08:00,77.6,64.0,30.15,NE,51,3.5,3.5,63,0.00,CLR,,0.00,WeatherDisplay:10.37,2013-09-06 18:08:00,
2013-09-06 14:13:00,77.9,64.7,30.14,East,85,0.0,0.0,64,0.00,CLR,,0.00,WeatherDisplay:10.37,2013-09-06 18:13:00,
2013-09-06 14:18:00,78.4,66.1,30.14,East,99,4.6,4.6,66,0.00,CLR,,0.00,WeatherDisplay:10.37,2013-09-06 18:18:00,
2013-09-06 14:23:00,78.2,64.1,30.14,NE,45,6.9,6.9,62,0.00,CLR,,0.00,WeatherDisplay:10.37,2013-09-06 18:23:00,
2013-09-06 14:28:00,78.3,65.1,30.14,ESE,103,0.0,0.7,64,0.00,CLR,,0.00,WeatherDisplay:10.37,2013-09-06 18:28:00,
2013-09-06 14:33:00,78.7,65.5,30.13,East,96,0.0,0.0,64,0.00,CLR,,0.00,WeatherDisplay:10.37,2013-09-06 18:33:00,
2013-09-06 14:38:00,79.1,65.4,30.13,NNE,18,3.5,0.0,63,0.00,CLR,,0.00,WeatherDisplay:10.37,2013-09-06 18:38:00,
2013-09-06 14:43:00,79.0,64.4,30.13,ENE,60,5.8,5.8,61,0.00,CLR,,0.00,WeatherDisplay:10.37,2013-09-06 18:43:00,
2013-09-06 14:48:00,78.2,64.1,30.13,East,83,2.3,2.3,62,0.00,CLR,,0.00,WeatherDisplay:10.37,2013-09-06 18:48:00,
2013-09-06 14:53:00,77.9,64.3,30.12,NE,53,3.5,3.5,63,0.00,CLR,,0.00,WeatherDisplay:10.37,2013-09-06 18:53:00,
2013-09-06 14:58:00,78.2,65.0,30.12,East,98,0.0,0.0,64,0.00,CLR,,0.00,WeatherDisplay:10.37,2013-09-06 18:58:00,
2013-09-06 15:03:00,78.5,63.9,30.12,ESE,107,0.0,0.0,61,0.00,CLR,,0.00,WeatherDisplay:10.37,2013-09-06 19:03:00,
2013-09-06 15:08:00,78.8,64.7,30.12,SE,134,0.0,0.0,62,0.00,CLR,,0.00,WeatherDisplay:10.37,2013-09-06 19:08:00,
2013-09-06 15:13:00,79.5,65.8,30.12,NE,48,2.3,2.3,63,0.00,CLR,,0.00,WeatherDisplay:10.37,2013-09-06 19:13:00,
2013-09-06 15:18:00,79.5,63.9,30.12,ENE,76,4.6,4.6,59,0.00,CLR,,0.00,WeatherDisplay:10.37,2013-09-06 19:18:00,
2013-09-06 15:23:00,79.7,66.0,30.11,SSE,164,0.0,0.0,63,0.00,CLR,,0.00,WeatherDisplay:10.37,2013-09-06 19:23:00,
2013-09-06 15:28:00,80.2,65.5,30.11,SW,232,6.9,6.9,61,0.00,CLR,,0.00,WeatherDisplay:10.37,2013-09-06 19:28:00,
2013-09-06 15:33:00,80.5,65.3,30.11,SSE,159,0.0,0.0,60,0.00,CLR,,0.00,WeatherDisplay:10.37,2013-09-06 19:33:00,
2013-09-06 15:38:00,80.7,65.0,30.11,SSE,159,0.0,0.0,59,0.00,CLR,,0.00,WeatherDisplay:10.37,2013-09-06 19:38:00,
2013-09-06 15:43:00,80.9,64.2,30.11,ESE,112,0.0,0.0,57,0.00,CLR,,0.00,WeatherDisplay:10.37,2013-09-06 19:43:00,
2013-09-06 15:48:00,81.0,66.8,30.11,ESE,112,0.0,0.0,62,0.00,CLR,,0.00,WeatherDisplay:10.37,2013-09-06 19:48:00,
2013-09-06 15:53:00,81.3,66.1,30.10,SSE,155,2.3,2.3,60,0.00,CLR,,0.00,WeatherDisplay:10.37,2013-09-06 19:53:00,
2013-09-06 15:58:00,81.3,65.6,30.10,SE,146,1.2,0.0,59,0.00,CLR,,0.00,WeatherDisplay:10.37,2013-09-06 19:58:00,
2013-09-06 16:03:00,80.8,64.1,30.10,ESE,105,3.5,0.0,57,0.00,CLR,,0.00,WeatherDisplay:10.37,2013-09-06 20:03:00,
2013-09-06 16:08:00,80.3,64.7,30.10,NE,48,3.5,3.5,59,0.00,CLR,,0.00,WeatherDisplay:10.37,2013-09-06 20:08:00,
2013-09-06 16:13:00,79.8,64.2,30.10,NE,55,0.0,0.1,59,0.00,CLR,,0.00,WeatherDisplay:10.37,2013-09-06 20:13:00,
2013-09-06 16:18:00,79.3,64.7,30.10,ENE,67,3.5,3.5,61,0.00,CLR,,0.00,WeatherDisplay:10.37,2013-09-06 20:18:00,
2013-09-06 16:23:00,79.3,65.1,30.10,North,350,4.0,4.0,62,0.00,CLR,,0.00,WeatherDisplay:10.37,2013-09-06 20:23:00,
2013-09-06 16:28:00,79.6,65.0,30.09,North,5,0.0,0.0,61,0.00,CLR,,0.00,WeatherDisplay:10.37,2013-09-06 20:28:00,
2013-09-06 16:33:00,79.8,64.2,30.09,ENE,73,4.0,4.0,59,0.00,CLR,,0.00,WeatherDisplay:10.37,2013-09-06 20:33:00,
2013-09-06 16:38:00,79.8,65.2,30.09,ESE,123,1.2,0.0,61,0.00,CLR,,0.00,WeatherDisplay:10.37,2013-09-06 20:38:00,
2013-09-06 16:43:00,79.9,64.3,30.09,ESE,121,0.0,0.0,59,0.00,CLR,,0.00,WeatherDisplay:10.37,2013-09-06 20:43:00,
2013-09-06 16:48:00,79.8,64.7,30.09,NE,55,3.5,0.0,60,0.00,CLR,,0.00,WeatherDisplay:10.37,2013-09-06 20:48:00,
2013-09-06 16:53:00,79.7,65.1,30.09,ENE,65,0.0,0.0,61,0.00,CLR,,0.00,WeatherDisplay:10.37,2013-09-06 20:53:00,
2013-09-06 16:58:00,79.8,64.7,30.09,ENE,76,0.0,0.0,60,0.00,CLR,,0.00,WeatherDisplay:10.37,2013-09-06 20:58:00,
2013-09-06 17:03:00,80.2,65.1,30.09,ENE,70,4.0,4.0,60,0.00,CLR,,0.00,WeatherDisplay:10.37,2013-09-06 21:03:00,
2013-09-06 17:08:00,79.9,63.8,30.08,NE,53,0.0,0.0,58,0.00,CLR,,0.00,WeatherDisplay:10.37,2013-09-06 21:08:00,
2013-09-06 17:13:00,79.8,65.6,30.09,NE,38,0.0,0.0,62,0.00,CLR,,0.00,WeatherDisplay:10.37,2013-09-06 21:13:00,
2013-09-06 17:18:00,79.9,64.3,30.08,NE,36,2.3,2.3,59,0.00,CLR,,0.00,WeatherDisplay:10.37,2013-09-06 21:18:00,
2013-09-06 17:23:00,80.0,64.9,30.08,NE,36,0.0,0.0,60,0.00,CLR,,0.00,WeatherDisplay:10.37,2013-09-06 21:23:00,
2013-09-06 17:28:00,80.4,65.2,30.08,ENE,65,0.0,0.1,60,0.00,CLR,,0.00,WeatherDisplay:10.37,2013-09-06 21:28:00,
2013-09-06 17:33:00,80.2,65.5,30.08,ENE,71,1.2,0.0,61,0.00,CLR,,0.00,WeatherDisplay:10.37,2013-09-06 21:33:00,
2013-09-06 17:38:00,80.0,64.9,30.08,ENE,75,0.0,0.0,60,0.00,CLR,,0.00,WeatherDisplay:10.37,2013-09-06 21:38:00,
2013-09-06 17:43:00,79.8,65.2,30.08,ENE,75,0.0,0.0,61,0.00,CLR,,0.00,WeatherDisplay:10.37,2013-09-06 21:43:00,
2013-09-06 17:48:00,79.6,64.5,30.08,ENE,77,0.0,0.0,60,0.00,CLR,,0.00,WeatherDisplay:10.37,2013-09-06 21:48:00,
2013-09-06 17:53:00,79.6,65.0,30.08,ENE,76,0.0,0.0,61,0.00,CLR,,0.00,WeatherDisplay:10.37,2013-09-06 21:53:00,
2013-09-06 17:58:00,79.6,64.0,30.08,ENE,77,0.0,0.0,59,0.00,CLR,,0.00,WeatherDisplay:10.37,2013-09-06 21:58:00,
2013-09-06 18:03:00,79.8,65.2,30.08,ENE,77,0.0,0.0,61,0.00,CLR,,0.00,WeatherDisplay:10.37,2013-09-06 22:03:00,
2013-09-06 18:08:00,80.0,66.3,30.08,ENE,77,0.0,0.0,63,0.00,CLR,,0.00,WeatherDisplay:10.37,2013-09-06 22:08:00,
2013-09-06 18:13:00,79.8,65.2,30.08,ENE,76,0.0,0.0,61,0.00,CLR,,0.00,WeatherDisplay:10.37,2013-09-06 22:13:00,
2013-09-06 18:18:00,79.7,65.1,30.08,ENE,77,1.2,0.0,61,0.00,CLR,,0.00,WeatherDisplay:10.37,2013-09-06 22:18:00,
2013-09-06 18:23:00,79.6,65.9,30.08,ENE,77,0.0,0.0,63,0.00,CLR,,0.00,WeatherDisplay:10.37,2013-09-06 22:23:00,
2013-09-06 18:28:00,79.5,65.8,30.08,ENE,76,0.0,0.0,63,0.00,CLR,,0.00,WeatherDisplay:10.37,2013-09-06 22:28:00,
2013-09-06 18:33:00,79.4,65.2,30.08,ENE,77,0.0,0.0,62,0.00,CLR,,0.00,WeatherDisplay:10.37,2013-09-06 22:33:00,
2013-09-06 18:38:00,79.4,65.7,30.08,ENE,77,0.0,0.0,63,0.00,CLR,,0.00,WeatherDisplay:10.37,2013-09-06 22:38:00,
2013-09-06 18:43:00,79.3,65.6,30.08,ENE,77,0.0,0.0,63,0.00,CLR,,0.00,WeatherDisplay:10.37,2013-09-06 22:43:00,
2013-09-06 18:48:00,79.1,65.0,30.08,ENE,76,0.0,0.0,62,0.00,CLR,,0.00,WeatherDisplay:10.37,2013-09-06 22:48:00,
2013-09-06 18:53:00,78.9,65.7,30.08,ENE,77,0.0,0.0,64,0.00,CLR,,0.00,WeatherDisplay:10.37,2013-09-06 22:53:00,
2013-09-06 18:58:00,78.7,65.9,30.08,East,92,0.0,0.0,65,0.00,CLR,,0.00,WeatherDisplay:10.37,2013-09-06 22:58:00,
2013-09-06 19:03:00,78.7,66.4,30.07,ESE,114,0.0,0.0,66,0.00,CLR,,0.00,WeatherDisplay:10.37,2013-09-06 23:03:00,
2013-09-06 19:08:00,78.5,66.6,30.07,ESE,113,0.0,0.0,67,0.00,CLR,,0.00,WeatherDisplay:10.37,2013-09-06 23:08:00,
2013-09-06 19:13:00,78.2,66.3,30.07,ESE,113,0.0,0.0,67,0.00,CLR,,0.00,WeatherDisplay:10.37,2013-09-06 23:13:00,
2013-09-06 19:18:00,77.9,66.5,30.07,ESE,113,0.0,0.0,68,0.00,CLR,,0.00,WeatherDisplay:10.37,2013-09-06 23:18:00,
2013-09-06 19:23:00,77.6,66.2,30.07,South,191,0.0,0.0,68,0.00,CLR,,0.00,WeatherDisplay:10.37,2013-09-06 23:23:00,
2013-09-06 19:28:00,77.4,67.3,30.07,West,276,0.0,0.0,71,0.00,CLR,,0.00,WeatherDisplay:10.37,2013-09-06 23:28:00,
2013-09-06 19:33:00,77.1,66.6,30.07,West,276,0.0,0.0,70,0.00,CLR,,0.00,WeatherDisplay:10.37,2013-09-06 23:33:00,
2013-09-06 19:38:00,76.7,66.6,30.07,West,276,0.0,0.0,71,0.00,CLR,,0.00,WeatherDisplay:10.37,2013-09-06 23:38:00,
2013-09-06 19:43:00,76.2,66.1,30.07,West,276,0.0,0.0,71,0.00,CLR,,0.00,WeatherDisplay:10.37,2013-09-06 23:43:00,
2013-09-06 19:48:00,75.7,66.0,30.07,West,276,0.0,0.0,72,0.00,CLR,,0.00,WeatherDisplay:10.37,2013-09-06 23:48:00,
2013-09-06 19:53:00,75.2,65.9,30.07,West,276,0.0,0.0,73,0.00,CLR,,0.00,WeatherDisplay:10.37,2013-09-06 23:53:00,
2013-09-06 19:58:00,74.8,66.3,30.08,West,276,0.0,0.0,75,0.00,CLR,,0.00,WeatherDisplay:10.37,2013-09-06 23:58:00,
2013-09-06 20:03:00,74.2,65.8,30.08,West,276,0.0,0.0,75,0.00,CLR,,0.00,WeatherDisplay:10.37,2013-09-07 00:03:00,
2013-09-06 20:08:00,73.6,66.3,30.08,West,276,0.0,0.0,78,0.00,CLR,,0.00,WeatherDisplay:10.37,2013-09-07 00:08:00,
2013-09-06 20:13:00,73.0,66.1,30.08,West,276,0.0,0.0,79,0.00,CLR,,0.00,WeatherDisplay:10.37,2013-09-07 00:13:00,
2013-09-06 20:18:00,72.5,65.6,30.08,West,276,0.0,0.0,79,0.00,CLR,,0.00,WeatherDisplay:10.37,2013-09-07 00:18:00,
2013-09-06 20:23:00,72.2,65.3,30.09,West,276,0.0,0.0,79,0.00,CLR,,0.00,WeatherDisplay:10.37,2013-09-07 00:23:00,
2013-09-06 20:28:00,71.8,65.7,30.09,West,276,0.0,0.0,81,0.00,CLR,,0.00,WeatherDisplay:10.37,2013-09-07 00:28:00,
2013-09-06 20:33:00,71.5,65.7,30.09,West,276,0.0,0.0,82,0.00,CLR,,0.00,WeatherDisplay:10.37,2013-09-07 00:33:00,
2013-09-06 20:38:00,71.2,65.1,30.09,West,276,0.0,0.0,81,0.00,CLR,,0.00,WeatherDisplay:10.37,2013-09-07 00:38:00,
2013-09-06 20:43:00,70.8,65.4,30.09,West,276,0.0,0.0,83,0.00,CLR,,0.00,WeatherDisplay:10.37,2013-09-07 00:43:00,
2013-09-06 20:48:00,70.5,65.1,30.09,West,276,0.0,0.0,83,0.00,CLR,,0.00,WeatherDisplay:10.37,2013-09-07 00:48:00,
2013-09-06 20:53:00,70.2,64.8,30.10,West,276,0.0,0.0,83,0.00,CLR,,0.00,WeatherDisplay:10.37,2013-09-07 00:53:00,
2013-09-06 20:58:00,69.9,64.8,30.10,West,276,0.0,0.0,84,0.00,CLR,,0.00,WeatherDisplay:10.37,2013-09-07 00:58:00,
2013-09-06 21:03:00,69.6,64.5,30.10,West,276,0.0,0.0,84,0.00,CLR,,0.00,WeatherDisplay:10.37,2013-09-07 01:03:00,
2013-09-06 21:08:00,69.4,64.7,30.10,West,276,0.0,0.0,85,0.00,CLR,,0.00,WeatherDisplay:10.37,2013-09-07 01:08:00,
2013-09-06 21:13:00,69.2,64.5,30.10,West,276,0.0,0.0,85,0.00,CLR,,0.00,WeatherDisplay:10.37,2013-09-07 01:13:00,
2013-09-06 21:18:00,69.0,64.6,30.10,West,276,0.0,0.0,86,0.00,CLR,,0.00,WeatherDisplay:10.37,2013-09-07 01:18:00,
2013-09-06 21:23:00,68.9,64.5,30.10,West,276,0.0,0.0,86,0.00,CLR,,0.00,WeatherDisplay:10.37,2013-09-07 01:23:00,
2013-09-06 21:28:00,68.8,64.4,30.10,West,276,0.0,0.0,86,0.00,CLR,,0.00,WeatherDisplay:10.37,2013-09-07 01:28:00,
2013-09-06 21:33:00,68.6,64.2,30.10,West,276,0.0,0.0,86,0.00,CLR,,0.00,WeatherDisplay:10.37,2013-09-07 01:33:00,
2013-09-06 21:38:00,68.6,64.2,30.10,West,276,0.0,0.0,86,0.00,CLR,,0.00,WeatherDisplay:10.37,2013-09-07 01:38:00,
2013-09-06 21:43:00,68.6,64.6,30.10,West,276,0.0,0.0,87,0.00,CLR,,0.00,WeatherDisplay:10.37,2013-09-07 01:43:00,
2013-09-06 21:48:00,68.6,64.6,30.11,West,276,0.0,0.0,87,0.00,CLR,,0.00,WeatherDisplay:10.37,2013-09-07 01:48:00,
2013-09-06 21:53:00,68.5,64.1,30.11,West,276,0.0,0.0,86,0.00,CLR,,0.00,WeatherDisplay:10.37,2013-09-07 01:53:00,
2013-09-06 21:58:00,68.5,64.1,30.11,West,276,0.0,0.0,86,0.00,CLR,,0.00,WeatherDisplay:10.37,2013-09-07 01:58:00,
2013-09-06 22:03:00,68.4,64.4,30.11,West,276,0.0,0.0,87,0.00,CLR,,0.00,WeatherDisplay:10.37,2013-09-07 02:03:00,
2013-09-06 22:08:00,68.2,64.2,30.11,West,276,0.0,0.0,87,0.00,CLR,,0.00,WeatherDisplay:10.37,2013-09-07 02:08:00,
2013-09-06 22:13:00,68.0,64.0,30.11,West,276,0.0,0.0,87,0.00,CLR,,0.00,WeatherDisplay:10.37,2013-09-07 02:13:00,
2013-09-06 22:18:00,67.9,63.9,30.11,West,276,0.0,0.0,87,0.00,CLR,,0.00,WeatherDisplay:10.37,2013-09-07 02:18:00,
2013-09-06 22:23:00,67.7,64.0,30.11,West,276,0.0,0.0,88,0.00,CLR,,0.00,WeatherDisplay:10.37,2013-09-07 02:23:00,
2013-09-06 22:28:00,67.6,64.2,30.11,West,276,0.0,0.0,89,0.00,CLR,,0.00,WeatherDisplay:10.37,2013-09-07 02:28:00,
2013-09-06 22:33:00,67.5,64.1,30.11,West,276,0.0,0.0,89,0.00,CLR,,0.00,WeatherDisplay:10.37,2013-09-07 02:33:00,
2013-09-06 22:39:00,67.4,64.0,30.11,West,276,0.0,0.0,89,0.00,CLR,,0.00,WeatherDisplay:10.37,2013-09-07 02:39:00,
2013-09-06 22:44:00,67.3,63.9,30.11,West,276,0.0,0.0,89,0.00,CLR,,0.00,WeatherDisplay:10.37,2013-09-07 02:44:00,
2013-09-06 22:49:00,67.3,63.9,30.11,West,276,0.0,0.0,89,0.00,CLR,,0.00,WeatherDisplay:10.37,2013-09-07 02:49:00,
2013-09-06 22:54:00,67.2,63.8,30.11,West,276,0.0,0.0,89,0.00,CLR,,0.00,WeatherDisplay:10.37,2013-09-07 02:54:00,
2013-09-06 22:59:00,67.1,63.7,30.11,West,276,0.0,0.0,89,0.00,CLR,,0.00,WeatherDisplay:10.37,2013-09-07 02:59:00,
2013-09-06 23:04:00,67.1,63.7,30.11,West,276,0.0,0.0,89,0.00,CLR,,0.00,WeatherDisplay:10.37,2013-09-07 03:04:00,
2013-09-06 23:09:00,67.0,63.6,30.11,West,276,0.0,0.0,89,0.00,CLR,,0.00,WeatherDisplay:10.37,2013-09-07 03:09:00,
2013-09-06 23:14:00,67.0,63.6,30.11,West,276,0.0,0.0,89,0.00,CLR,,0.00,WeatherDisplay:10.37,2013-09-07 03:14:00,
2013-09-06 23:19:00,66.9,63.6,30.11,West,276,0.0,0.0,89,0.00,CLR,,0.00,WeatherDisplay:10.37,2013-09-07 03:19:00,
2013-09-06 23:24:00,66.8,63.5,30.11,West,276,0.0,0.0,89,0.00,CLR,,0.00,WeatherDisplay:10.37,2013-09-07 03:24:00,
2013-09-06 23:29:00,66.6,63.3,30.11,West,276,0.0,0.0,89,0.00,CLR,,0.00,WeatherDisplay:10.37,2013-09-07 03:29:00,
2013-09-06 23:34:00,66.5,63.5,30.11,West,276,0.0,0.0,90,0.00,CLR,,0.00,WeatherDisplay:10.37,2013-09-07 03:34:00,
2013-09-06 23:39:00,66.3,63.3,30.11,West,276,0.0,0.0,90,0.00,CLR,,0.00,WeatherDisplay:10.37,2013-09-07 03:39:00,
2013-09-06 23:44:00,66.0,63.0,30.11,West,276,0.0,0.0,90,0.00,CLR,,0.00,WeatherDisplay:10.37,2013-09-07 03:44:00,
2013-09-06 23:49:00,65.8,62.8,30.12,West,276,0.0,0.0,90,0.00,CLR,,0.00,WeatherDisplay:10.37,2013-09-07 03:49:00,
2013-09-06 23:54:00,65.7,63.0,30.12,West,276,0.0,0.0,91,0.00,CLR,,0.00,WeatherDisplay:10.37,2013-09-07 03:54:00,
2013-09-06 23:59:00,65.5,62.8,30.12,West,276,0.0,0.0,91,0.00,CLR,,0.00,WeatherDisplay:10.37,2013-09-07 03:59:00,